Year,Month,Day,Hour,Minute,Value (Times are PST for temperature in C)
2010,06,12,00,00,11.50
2010,06,12,00,01,11.50
2010,06,12,00,02,11.50
2010,06,12,00,03,11.50
2010,06,12,00,04,11.50
2010,06,12,00,05,11.50
2010,06,12,00,06,11.40
2010,06,12,00,07,11.40
2010,06,12,00,08,11.40
2010,06,12,00,09,11.40
2010,06,12,00,10,11.30
2010,06,12,00,11,11.30
2010,06,12,00,12,11.30
2010,06,12,00,13,11.30
2010,06,12,00,14,11.30
2010,06,12,00,15,11.30
2010,06,12,00,16,11.20
2010,06,12,00,17,11.20
2010,06,12,00,18,11.20
2010,06,12,00,19,11.20
2010,06,12,00,20,11.10
2010,06,12,00,21,11.10
2010,06,12,00,22,11.10
2010,06,12,00,23,11.00
2010,06,12,00,24,11.00
2010,06,12,00,25,10.90
2010,06,12,00,26,10.90
2010,06,12,00,27,10.80
2010,06,12,00,28,10.80
2010,06,12,00,29,10.80
2010,06,12,00,30,10.80
2010,06,12,00,31,10.80
2010,06,12,00,32,10.80
2010,06,12,00,33,10.70
2010,06,12,00,34,10.70
2010,06,12,00,35,10.70
2010,06,12,00,36,10.70
2010,06,12,00,37,10.60
2010,06,12,00,38,10.60
2010,06,12,00,39,10.60
2010,06,12,00,40,10.60
2010,06,12,00,41,10.60
2010,06,12,00,42,10.50
2010,06,12,00,43,10.50
2010,06,12,00,44,10.50
2010,06,12,00,45,10.40
2010,06,12,00,46,10.40
2010,06,12,00,47,10.40
2010,06,12,00,48,10.40
2010,06,12,00,49,10.40
2010,06,12,00,50,10.40
2010,06,12,00,51,10.40
2010,06,12,00,52,10.40
2010,06,12,00,53,10.40
2010,06,12,00,54,10.40
2010,06,12,00,55,10.40
2010,06,12,00,56,10.40
2010,06,12,00,57,10.40
2010,06,12,00,58,10.40
2010,06,12,00,59,10.30
2010,06,12,01,00,10.30
2010,06,12,01,01,10.30
2010,06,12,01,02,10.30
2010,06,12,01,03,10.30
2010,06,12,01,04,10.30
2010,06,12,01,05,10.20
2010,06,12,01,06,10.20
2010,06,12,01,07,10.20
2010,06,12,01,08,10.20
2010,06,12,01,09,10.20
2010,06,12,01,10,10.20
2010,06,12,01,11,10.20
2010,06,12,01,12,10.20
2010,06,12,01,13,10.10
2010,06,12,01,14,10.10
2010,06,12,01,15,10.00
2010,06,12,01,16,10.00
2010,06,12,01,17,9.90
2010,06,12,01,18,9.90
2010,06,12,01,19,9.80
2010,06,12,01,20,9.80
2010,06,12,01,21,9.80
2010,06,12,01,22,9.80
2010,06,12,01,23,9.80
2010,06,12,01,24,9.80
2010,06,12,01,25,9.80
2010,06,12,01,26,9.80
2010,06,12,01,27,9.80
2010,06,12,01,28,9.80
2010,06,12,01,29,9.80
2010,06,12,01,30,9.80
2010,06,12,01,31,9.80
2010,06,12,01,32,9.70
2010,06,12,01,33,9.70
2010,06,12,01,34,9.70
2010,06,12,01,35,9.70
2010,06,12,01,36,9.70
2010,06,12,01,37,9.70
2010,06,12,01,38,9.80
2010,06,12,01,39,9.80
2010,06,12,01,40,9.80
2010,06,12,01,41,9.80
2010,06,12,01,42,9.80
2010,06,12,01,43,9.80
2010,06,12,01,44,9.80
2010,06,12,01,45,9.80
2010,06,12,01,46,9.80
2010,06,12,01,47,9.80
2010,06,12,01,48,9.80
2010,06,12,01,49,9.70
2010,06,12,01,50,9.70
2010,06,12,01,51,9.70
2010,06,12,01,52,9.70
2010,06,12,01,53,9.60
2010,06,12,01,54,9.60
2010,06,12,01,55,9.60
2010,06,12,01,56,9.60
2010,06,12,01,57,9.70
2010,06,12,01,58,9.70
2010,06,12,01,59,9.70
2010,06,12,02,00,9.70
2010,06,12,02,01,9.70
2010,06,12,02,02,9.70
2010,06,12,02,03,9.80
2010,06,12,02,04,9.80
2010,06,12,02,05,9.70
2010,06,12,02,06,9.70
2010,06,12,02,07,9.70
2010,06,12,02,08,9.70
2010,06,12,02,09,9.70
2010,06,12,02,10,9.70
2010,06,12,02,11,9.70
2010,06,12,02,12,9.60
2010,06,12,02,13,9.60
2010,06,12,02,14,9.60
2010,06,12,02,15,9.60
2010,06,12,02,16,9.60
2010,06,12,02,17,9.60
2010,06,12,02,18,9.50
2010,06,12,02,19,9.50
2010,06,12,02,20,9.40
2010,06,12,02,21,9.40
2010,06,12,02,22,9.30
2010,06,12,02,23,9.30
2010,06,12,02,24,9.30
2010,06,12,02,25,9.20
2010,06,12,02,26,9.20
2010,06,12,02,27,9.20
2010,06,12,02,28,9.20
2010,06,12,02,29,9.20
2010,06,12,02,30,9.10
2010,06,12,02,31,9.10
2010,06,12,02,32,9.10
2010,06,12,02,33,9.10
2010,06,12,02,34,9.00
2010,06,12,02,35,9.00
2010,06,12,02,36,9.00
2010,06,12,02,37,8.90
2010,06,12,02,38,8.90
2010,06,12,02,39,8.90
2010,06,12,02,40,8.90
2010,06,12,02,41,8.90
2010,06,12,02,42,8.90
2010,06,12,02,43,8.90
2010,06,12,02,44,8.90
2010,06,12,02,45,8.80
2010,06,12,02,46,8.80
2010,06,12,02,47,8.80
2010,06,12,02,48,8.80
2010,06,12,02,49,8.80
2010,06,12,02,50,8.80
2010,06,12,02,51,8.80
2010,06,12,02,52,8.80
2010,06,12,02,53,8.80
2010,06,12,02,54,8.80
2010,06,12,02,55,8.80
2010,06,12,02,56,8.80
2010,06,12,02,57,8.70
2010,06,12,02,58,8.70
2010,06,12,02,59,8.70
2010,06,12,03,00,8.70
2010,06,12,03,01,8.70
2010,06,12,03,02,8.70
2010,06,12,03,03,8.70
2010,06,12,03,04,8.70
2010,06,12,03,05,8.60
2010,06,12,03,06,8.60
2010,06,12,03,07,8.60
2010,06,12,03,08,8.60
2010,06,12,03,09,8.60
2010,06,12,03,10,8.60
2010,06,12,03,11,8.60
2010,06,12,03,12,8.60
2010,06,12,03,13,8.60
2010,06,12,03,14,8.60
2010,06,12,03,15,8.60
2010,06,12,03,16,8.60
2010,06,12,03,17,8.60
2010,06,12,03,18,8.60
2010,06,12,03,19,8.60
2010,06,12,03,20,8.60
2010,06,12,03,21,8.60
2010,06,12,03,22,8.60
2010,06,12,03,23,8.50
2010,06,12,03,24,8.50
2010,06,12,03,25,8.50
2010,06,12,03,26,8.50
2010,06,12,03,27,8.50
2010,06,12,03,28,8.40
2010,06,12,03,29,8.40
2010,06,12,03,30,8.40
2010,06,12,03,31,8.40
2010,06,12,03,32,8.40
2010,06,12,03,33,8.40
2010,06,12,03,34,8.40
2010,06,12,03,35,8.40
2010,06,12,03,36,8.40
2010,06,12,03,37,8.40
2010,06,12,03,38,8.30
2010,06,12,03,39,8.30
2010,06,12,03,40,8.30
2010,06,12,03,41,8.30
2010,06,12,03,42,8.30
2010,06,12,03,43,8.30
2010,06,12,03,44,8.30
2010,06,12,03,45,8.30
2010,06,12,03,46,8.30
2010,06,12,03,47,8.30
2010,06,12,03,48,8.30
2010,06,12,03,49,8.30
2010,06,12,03,50,8.30
2010,06,12,03,51,8.30
2010,06,12,03,52,8.20
2010,06,12,03,53,8.20
2010,06,12,03,54,8.20
2010,06,12,03,55,8.20
2010,06,12,03,56,8.20
2010,06,12,03,57,8.20
2010,06,12,03,58,8.20
2010,06,12,03,59,8.20
2010,06,12,04,00,8.20
2010,06,12,04,01,8.20
2010,06,12,04,02,8.20
2010,06,12,04,03,8.20
2010,06,12,04,04,8.20
2010,06,12,04,05,8.20
2010,06,12,04,06,8.20
2010,06,12,04,07,8.20
2010,06,12,04,08,8.20
2010,06,12,04,09,8.20
2010,06,12,04,10,8.20
2010,06,12,04,11,8.20
2010,06,12,04,12,8.20
2010,06,12,04,13,8.20
2010,06,12,04,14,8.10
2010,06,12,04,15,8.10
2010,06,12,04,16,8.10
2010,06,12,04,17,8.10
2010,06,12,04,18,8.10
2010,06,12,04,19,8.00
2010,06,12,04,20,8.00
2010,06,12,04,21,8.00
2010,06,12,04,22,8.00
2010,06,12,04,23,8.00
2010,06,12,04,24,7.90
2010,06,12,04,25,7.90
2010,06,12,04,26,7.90
2010,06,12,04,27,7.90
2010,06,12,04,28,7.90
2010,06,12,04,29,7.90
2010,06,12,04,30,7.90
2010,06,12,04,31,7.90
2010,06,12,04,32,7.90
2010,06,12,04,33,7.90
2010,06,12,04,34,7.90
2010,06,12,04,35,7.90
2010,06,12,04,36,7.90
2010,06,12,04,37,7.90
2010,06,12,04,38,7.90
2010,06,12,04,39,7.90
2010,06,12,04,40,7.90
2010,06,12,04,41,7.80
2010,06,12,04,42,7.90
2010,06,12,04,43,7.90
2010,06,12,04,44,7.90
2010,06,12,04,45,7.90
2010,06,12,04,46,7.90
2010,06,12,04,47,7.90
2010,06,12,04,48,7.90
2010,06,12,04,49,7.90
2010,06,12,04,50,7.90
2010,06,12,04,51,7.90
2010,06,12,04,52,7.80
2010,06,12,04,53,7.80
2010,06,12,04,54,7.80
2010,06,12,04,55,7.80
2010,06,12,04,56,7.80
2010,06,12,04,57,7.80
2010,06,12,04,58,7.80
2010,06,12,04,59,7.80
2010,06,12,05,00,7.80
2010,06,12,05,01,7.80
2010,06,12,05,02,7.80
2010,06,12,05,03,7.80
2010,06,12,05,04,7.80
2010,06,12,05,05,7.80
2010,06,12,05,06,7.70
2010,06,12,05,07,7.70
2010,06,12,05,08,7.70
2010,06,12,05,09,7.70
2010,06,12,05,10,7.70
2010,06,12,05,11,7.70
2010,06,12,05,12,7.70
2010,06,12,05,13,7.70
2010,06,12,05,14,7.70
2010,06,12,05,15,7.70
2010,06,12,05,16,7.70
2010,06,12,05,17,7.70
2010,06,12,05,18,7.70
2010,06,12,05,19,7.70
2010,06,12,05,20,7.60
2010,06,12,05,21,7.60
2010,06,12,05,22,7.60
2010,06,12,05,23,7.60
2010,06,12,05,24,7.60
2010,06,12,05,25,7.60
2010,06,12,05,26,7.60
2010,06,12,05,27,7.50
2010,06,12,05,28,7.50
2010,06,12,05,29,7.50
2010,06,12,05,30,7.50
2010,06,12,05,31,7.50
2010,06,12,05,32,7.50
2010,06,12,05,33,7.50
2010,06,12,05,34,7.50
2010,06,12,05,35,7.50
2010,06,12,05,36,7.50
2010,06,12,05,37,7.50
2010,06,12,05,38,7.50
2010,06,12,05,39,7.40
2010,06,12,05,40,7.40
2010,06,12,05,41,7.50
2010,06,12,05,42,7.50
2010,06,12,05,43,7.50
2010,06,12,05,44,7.60
2010,06,12,05,45,7.60
2010,06,12,05,46,7.60
2010,06,12,05,47,7.60
2010,06,12,05,48,7.60
2010,06,12,05,49,7.60
2010,06,12,05,50,7.60
2010,06,12,05,51,7.60
2010,06,12,05,52,7.60
2010,06,12,05,53,7.60
2010,06,12,05,54,7.60
2010,06,12,05,55,7.60
2010,06,12,05,56,7.70
2010,06,12,05,57,7.70
2010,06,12,05,58,7.70
2010,06,12,05,59,7.70
2010,06,12,06,00,7.70
2010,06,12,06,01,7.70
2010,06,12,06,02,7.80
2010,06,12,06,03,7.80
2010,06,12,06,04,7.80
2010,06,12,06,05,7.90
2010,06,12,06,06,7.90
2010,06,12,06,07,7.90
2010,06,12,06,08,8.00
2010,06,12,06,09,8.00
2010,06,12,06,10,8.00
2010,06,12,06,11,8.00
2010,06,12,06,12,8.00
2010,06,12,06,13,8.00
2010,06,12,06,14,8.00
2010,06,12,06,15,8.00
2010,06,12,06,16,8.10
2010,06,12,06,17,8.10
2010,06,12,06,18,8.10
2010,06,12,06,19,8.10
2010,06,12,06,20,8.20
2010,06,12,06,21,8.20
2010,06,12,06,22,8.20
2010,06,12,06,23,8.20
2010,06,12,06,24,8.20
2010,06,12,06,25,8.20
2010,06,12,06,26,8.20
2010,06,12,06,27,8.20
2010,06,12,06,28,8.30
2010,06,12,06,29,8.30
2010,06,12,06,30,8.30
2010,06,12,06,31,8.40
2010,06,12,06,32,8.40
2010,06,12,06,33,8.50
2010,06,12,06,34,8.50
2010,06,12,06,35,8.60
2010,06,12,06,36,8.60
2010,06,12,06,37,8.60
2010,06,12,06,38,8.60
2010,06,12,06,39,8.70
2010,06,12,06,40,8.70
2010,06,12,06,41,8.70
2010,06,12,06,42,8.80
2010,06,12,06,43,8.80
2010,06,12,06,44,8.80
2010,06,12,06,45,8.90
2010,06,12,06,46,8.90
2010,06,12,06,47,9.00
2010,06,12,06,48,9.10
2010,06,12,06,49,9.20
2010,06,12,06,50,9.30
2010,06,12,06,51,9.30
2010,06,12,06,52,9.40
2010,06,12,06,53,9.50
2010,06,12,06,54,9.60
2010,06,12,06,55,9.70
2010,06,12,06,56,9.80
2010,06,12,06,57,9.90
2010,06,12,06,58,10.00
2010,06,12,06,59,10.10
2010,06,12,07,00,10.20
2010,06,12,07,01,10.30
2010,06,12,07,02,10.40
2010,06,12,07,03,10.50
2010,06,12,07,04,10.50
2010,06,12,07,05,10.60
2010,06,12,07,06,10.70
2010,06,12,07,07,10.80
2010,06,12,07,08,10.90
2010,06,12,07,09,11.00
2010,06,12,07,10,11.10
2010,06,12,07,11,11.20
2010,06,12,07,12,11.20
2010,06,12,07,13,11.30
2010,06,12,07,14,11.30
2010,06,12,07,15,11.40
2010,06,12,07,16,11.40
2010,06,12,07,17,11.50
2010,06,12,07,18,11.60
2010,06,12,07,19,11.70
2010,06,12,07,20,11.80
2010,06,12,07,21,11.90
2010,06,12,07,22,11.90
2010,06,12,07,23,12.00
2010,06,12,07,24,12.00
2010,06,12,07,25,12.10
2010,06,12,07,26,12.20
2010,06,12,07,27,12.30
2010,06,12,07,28,12.40
2010,06,12,07,29,12.50
2010,06,12,07,30,12.50
2010,06,12,07,31,12.60
2010,06,12,07,32,12.60
2010,06,12,07,33,12.70
2010,06,12,07,34,12.70
2010,06,12,07,35,12.80
2010,06,12,07,36,12.90
2010,06,12,07,37,12.90
2010,06,12,07,38,13.00
2010,06,12,07,39,13.10
2010,06,12,07,40,13.10
2010,06,12,07,41,13.20
2010,06,12,07,42,13.20
2010,06,12,07,43,13.30
2010,06,12,07,44,13.40
2010,06,12,07,45,13.50
2010,06,12,07,46,13.60
2010,06,12,07,47,13.60
2010,06,12,07,48,13.60
2010,06,12,07,49,13.60
2010,06,12,07,50,13.60
2010,06,12,07,51,13.50
2010,06,12,07,52,13.50
2010,06,12,07,53,13.40
2010,06,12,07,54,13.40
2010,06,12,07,55,13.40
2010,06,12,07,56,13.40
2010,06,12,07,57,13.50
2010,06,12,07,58,13.50
2010,06,12,07,59,13.50
2010,06,12,08,00,13.50
2010,06,12,08,01,13.60
2010,06,12,08,02,13.60
2010,06,12,08,03,13.60
2010,06,12,08,04,13.60
2010,06,12,08,05,13.70
2010,06,12,08,06,13.70
2010,06,12,08,07,13.80
2010,06,12,08,08,13.80
2010,06,12,08,09,13.90
2010,06,12,08,10,13.90
2010,06,12,08,11,13.90
2010,06,12,08,12,14.00
2010,06,12,08,13,14.00
2010,06,12,08,14,14.10
2010,06,12,08,15,14.20
2010,06,12,08,16,14.20
2010,06,12,08,17,14.30
2010,06,12,08,18,14.40
2010,06,12,08,19,14.40
2010,06,12,08,20,14.40
2010,06,12,08,21,14.40
2010,06,12,08,22,14.40
2010,06,12,08,23,14.40
2010,06,12,08,24,14.40
2010,06,12,08,25,14.50
2010,06,12,08,26,14.50
2010,06,12,08,27,14.60
2010,06,12,08,28,14.80
2010,06,12,08,29,15.00
2010,06,12,08,30,15.00
2010,06,12,08,31,15.00
2010,06,12,08,32,15.20
2010,06,12,08,33,15.20
2010,06,12,08,34,15.30
2010,06,12,08,35,15.50
2010,06,12,08,36,15.60
2010,06,12,08,37,15.60
2010,06,12,08,38,15.60
2010,06,12,08,39,15.60
2010,06,12,08,40,15.70
2010,06,12,08,41,15.80
2010,06,12,08,42,15.80
2010,06,12,08,43,15.80
2010,06,12,08,44,15.80
2010,06,12,08,45,15.90
2010,06,12,08,46,15.90
2010,06,12,08,47,15.90
2010,06,12,08,48,15.90
2010,06,12,08,49,15.90
2010,06,12,08,50,15.90
2010,06,12,08,51,15.90
2010,06,12,08,52,15.90
2010,06,12,08,53,15.90
2010,06,12,08,54,16.00
2010,06,12,08,55,16.00
2010,06,12,08,56,15.90
2010,06,12,08,57,15.90
2010,06,12,08,58,15.80
2010,06,12,08,59,15.70
2010,06,12,09,00,15.70
2010,06,12,09,01,15.80
2010,06,12,09,02,15.80
2010,06,12,09,03,15.80
2010,06,12,09,04,15.80
2010,06,12,09,05,15.90
2010,06,12,09,06,16.00
2010,06,12,09,07,16.20
2010,06,12,09,08,16.20
2010,06,12,09,09,16.40
2010,06,12,09,10,16.40
2010,06,12,09,11,16.40
2010,06,12,09,12,16.40
2010,06,12,09,13,16.50
2010,06,12,09,14,16.50
2010,06,12,09,15,16.60
2010,06,12,09,16,16.60
2010,06,12,09,17,16.70
2010,06,12,09,18,16.70
2010,06,12,09,19,16.80
2010,06,12,09,20,16.80
2010,06,12,09,21,16.90
2010,06,12,09,22,17.00
2010,06,12,09,23,17.10
2010,06,12,09,24,17.10
2010,06,12,09,25,17.10
2010,06,12,09,26,17.10
2010,06,12,09,27,17.10
2010,06,12,09,28,17.10
2010,06,12,09,29,17.00
2010,06,12,09,30,16.90
2010,06,12,09,31,16.80
2010,06,12,09,32,16.70
2010,06,12,09,33,16.60
2010,06,12,09,34,16.50
2010,06,12,09,35,16.40
2010,06,12,09,36,16.40
2010,06,12,09,37,16.40
2010,06,12,09,38,16.30
2010,06,12,09,39,16.30
2010,06,12,09,40,16.40
2010,06,12,09,41,16.40
2010,06,12,09,42,16.50
2010,06,12,09,43,16.50
2010,06,12,09,44,16.50
2010,06,12,09,45,16.40
2010,06,12,09,46,16.30
2010,06,12,09,47,16.30
2010,06,12,09,48,16.20
2010,06,12,09,49,16.20
2010,06,12,09,50,16.30
2010,06,12,09,51,16.30
2010,06,12,09,52,16.30
2010,06,12,09,53,16.30
2010,06,12,09,54,16.30
2010,06,12,09,55,16.40
2010,06,12,09,56,16.50
2010,06,12,09,57,16.60
2010,06,12,09,58,16.60
2010,06,12,09,59,16.70
2010,06,12,10,00,16.80
2010,06,12,10,01,17.00
2010,06,12,10,02,17.20
2010,06,12,10,03,17.30
2010,06,12,10,04,17.50
2010,06,12,10,05,17.60
2010,06,12,10,06,17.70
2010,06,12,10,07,17.80
2010,06,12,10,08,17.80
2010,06,12,10,09,17.70
2010,06,12,10,10,17.60
2010,06,12,10,11,17.40
2010,06,12,10,12,17.30
2010,06,12,10,13,17.20
2010,06,12,10,14,17.20
2010,06,12,10,15,17.20
2010,06,12,10,16,17.20
2010,06,12,10,17,17.20
2010,06,12,10,18,17.10
2010,06,12,10,19,17.10
2010,06,12,10,20,17.10
2010,06,12,10,21,17.10
2010,06,12,10,22,17.00
2010,06,12,10,23,16.90
2010,06,12,10,24,16.90
2010,06,12,10,25,16.80
2010,06,12,10,26,16.70
2010,06,12,10,27,16.60
2010,06,12,10,28,16.40
2010,06,12,10,29,16.40
2010,06,12,10,30,16.40
2010,06,12,10,31,16.30
2010,06,12,10,32,16.30
2010,06,12,10,33,16.30
2010,06,12,10,34,16.20
2010,06,12,10,35,16.10
2010,06,12,10,36,16.10
2010,06,12,10,37,16.10
2010,06,12,10,38,16.20
2010,06,12,10,39,16.30
2010,06,12,10,40,16.30
2010,06,12,10,41,16.30
2010,06,12,10,42,16.30
2010,06,12,10,43,16.30
2010,06,12,10,44,16.30
2010,06,12,10,45,16.30
2010,06,12,10,46,16.30
2010,06,12,10,47,16.30
2010,06,12,10,48,16.20
2010,06,12,10,49,16.20
2010,06,12,10,50,16.30
2010,06,12,10,51,16.20
2010,06,12,10,52,16.20
2010,06,12,10,53,16.20
2010,06,12,10,54,16.20
2010,06,12,10,55,16.20
2010,06,12,10,56,16.10
2010,06,12,10,57,16.10
2010,06,12,10,58,16.20
2010,06,12,10,59,16.30
2010,06,12,11,00,16.30
2010,06,12,11,01,16.30
2010,06,12,11,02,16.30
2010,06,12,11,03,16.40
2010,06,12,11,04,16.40
2010,06,12,11,05,16.30
2010,06,12,11,06,16.20
2010,06,12,11,07,16.20
2010,06,12,11,08,16.20
2010,06,12,11,09,16.30
2010,06,12,11,10,16.20
2010,06,12,11,11,16.20
2010,06,12,11,12,16.30
2010,06,12,11,13,16.20
2010,06,12,11,14,16.20
2010,06,12,11,15,16.20
2010,06,12,11,16,16.20
2010,06,12,11,17,16.20
2010,06,12,11,18,16.20
2010,06,12,11,19,16.20
2010,06,12,11,20,16.20
2010,06,12,11,21,16.20
2010,06,12,11,22,16.20
2010,06,12,11,23,16.20
2010,06,12,11,24,16.20
2010,06,12,11,25,16.20
2010,06,12,11,26,16.20
2010,06,12,11,27,16.20
2010,06,12,11,28,16.20
2010,06,12,11,29,16.20
2010,06,12,11,30,16.20
2010,06,12,11,31,16.20
2010,06,12,11,32,16.30
2010,06,12,11,33,16.30
2010,06,12,11,34,16.30
2010,06,12,11,35,16.40
2010,06,12,11,36,16.50
2010,06,12,11,37,16.50
2010,06,12,11,38,16.70
2010,06,12,11,39,16.70
2010,06,12,11,40,16.70
2010,06,12,11,41,16.70
2010,06,12,11,42,16.70
2010,06,12,11,43,16.70
2010,06,12,11,44,16.80
2010,06,12,11,45,16.80
2010,06,12,11,46,16.80
2010,06,12,11,47,16.90
2010,06,12,11,48,17.00
2010,06,12,11,49,17.10
2010,06,12,11,50,17.10
2010,06,12,11,51,17.10
2010,06,12,11,52,17.10
2010,06,12,11,53,17.00
2010,06,12,11,54,16.90
2010,06,12,11,55,16.90
2010,06,12,11,56,16.90
2010,06,12,11,57,16.80
2010,06,12,11,58,16.70
2010,06,12,11,59,16.70
2010,06,12,12,00,16.70
2010,06,12,12,01,16.70
2010,06,12,12,02,16.70
2010,06,12,12,03,16.70
2010,06,12,12,04,16.80
2010,06,12,12,05,16.80
2010,06,12,12,06,16.80
2010,06,12,12,07,16.80
2010,06,12,12,08,16.90
2010,06,12,12,09,16.90
2010,06,12,12,10,16.90
2010,06,12,12,11,16.90
2010,06,12,12,12,16.90
2010,06,12,12,13,16.90
2010,06,12,12,14,16.90
2010,06,12,12,15,16.80
2010,06,12,12,16,16.70
2010,06,12,12,17,16.80
2010,06,12,12,18,16.70
2010,06,12,12,19,16.60
2010,06,12,12,20,16.50
2010,06,12,12,21,16.50
2010,06,12,12,22,16.50
2010,06,12,12,23,16.50
2010,06,12,12,24,16.60
2010,06,12,12,25,16.50
2010,06,12,12,26,16.40
2010,06,12,12,27,16.40
2010,06,12,12,28,16.40
2010,06,12,12,29,16.40
2010,06,12,12,30,16.40
2010,06,12,12,31,16.40
2010,06,12,12,32,16.40
2010,06,12,12,33,16.40
2010,06,12,12,34,16.40
2010,06,12,12,35,16.40
2010,06,12,12,36,16.40
2010,06,12,12,37,16.50
2010,06,12,12,38,16.50
2010,06,12,12,39,16.50
2010,06,12,12,40,16.40
2010,06,12,12,41,16.40
2010,06,12,12,42,16.40
2010,06,12,12,43,16.40
2010,06,12,12,44,16.40
2010,06,12,12,45,16.40
2010,06,12,12,46,16.30
2010,06,12,12,47,16.30
2010,06,12,12,48,16.20
2010,06,12,12,49,16.20
2010,06,12,12,50,16.10
2010,06,12,12,51,16.10
2010,06,12,12,52,16.20
2010,06,12,12,53,16.20
2010,06,12,12,54,16.30
2010,06,12,12,55,16.40
2010,06,12,12,56,16.40
2010,06,12,12,57,16.20
2010,06,12,12,58,16.10
2010,06,12,12,59,16.00
2010,06,12,13,00,15.90
2010,06,12,13,01,16.00
2010,06,12,13,02,16.10
2010,06,12,13,03,16.10
2010,06,12,13,04,16.10
2010,06,12,13,05,16.10
2010,06,12,13,06,16.20
2010,06,12,13,07,16.10
2010,06,12,13,08,16.10
2010,06,12,13,09,16.10
2010,06,12,13,10,16.10
2010,06,12,13,11,16.10
2010,06,12,13,12,16.20
2010,06,12,13,13,16.20
2010,06,12,13,14,16.30
2010,06,12,13,15,16.30
2010,06,12,13,16,16.40
2010,06,12,13,17,16.40
2010,06,12,13,18,16.30
2010,06,12,13,19,16.30
2010,06,12,13,20,16.30
2010,06,12,13,21,16.30
2010,06,12,13,22,16.30
2010,06,12,13,23,16.30
2010,06,12,13,24,16.30
2010,06,12,13,25,16.40
2010,06,12,13,26,16.50
2010,06,12,13,27,16.50
2010,06,12,13,28,16.50
2010,06,12,13,29,16.60
2010,06,12,13,30,16.60
2010,06,12,13,31,16.60
2010,06,12,13,32,16.60
2010,06,12,13,33,16.70
2010,06,12,13,34,16.70
2010,06,12,13,35,16.60
2010,06,12,13,36,16.60
2010,06,12,13,37,16.60
2010,06,12,13,38,16.60
2010,06,12,13,39,16.60
2010,06,12,13,40,16.60
2010,06,12,13,41,16.60
2010,06,12,13,42,16.70
2010,06,12,13,43,16.70
2010,06,12,13,44,16.70
2010,06,12,13,45,16.70
2010,06,12,13,46,16.70
2010,06,12,13,47,16.70
2010,06,12,13,48,16.70
2010,06,12,13,49,16.70
2010,06,12,13,50,16.70
2010,06,12,13,51,16.80
2010,06,12,13,52,16.70
2010,06,12,13,53,16.70
2010,06,12,13,54,16.70
2010,06,12,13,55,16.70
2010,06,12,13,56,16.70
2010,06,12,13,57,16.70
2010,06,12,13,58,16.80
2010,06,12,13,59,16.80
2010,06,12,14,00,16.80
2010,06,12,14,01,16.80
2010,06,12,14,02,16.80
2010,06,12,14,03,16.80
2010,06,12,14,04,16.80
2010,06,12,14,05,16.90
2010,06,12,14,06,16.90
2010,06,12,14,07,16.80
2010,06,12,14,08,16.80
2010,06,12,14,09,16.90
2010,06,12,14,10,16.90
2010,06,12,14,11,16.80
2010,06,12,14,12,16.80
2010,06,12,14,13,16.90
2010,06,12,14,14,16.90
2010,06,12,14,15,17.00
2010,06,12,14,16,17.10
2010,06,12,14,17,17.10
2010,06,12,14,18,17.20
2010,06,12,14,19,17.20
2010,06,12,14,20,17.10
2010,06,12,14,21,17.20
2010,06,12,14,22,17.10
2010,06,12,14,23,17.10
2010,06,12,14,24,17.20
2010,06,12,14,25,17.30
2010,06,12,14,26,17.30
2010,06,12,14,27,17.20
2010,06,12,14,28,17.20
2010,06,12,14,29,17.30
2010,06,12,14,30,17.30
2010,06,12,14,31,17.20
2010,06,12,14,32,17.20
2010,06,12,14,33,17.20
2010,06,12,14,34,17.20
2010,06,12,14,35,17.30
2010,06,12,14,36,17.30
2010,06,12,14,37,17.30
2010,06,12,14,38,17.40
2010,06,12,14,39,17.40
2010,06,12,14,40,17.40
2010,06,12,14,41,17.50
2010,06,12,14,42,17.60
2010,06,12,14,43,17.60
2010,06,12,14,44,17.60
2010,06,12,14,45,17.60
2010,06,12,14,46,17.60
2010,06,12,14,47,17.60
2010,06,12,14,48,17.70
2010,06,12,14,49,17.80
2010,06,12,14,50,17.80
2010,06,12,14,51,17.70
2010,06,12,14,52,17.80
2010,06,12,14,53,17.70
2010,06,12,14,54,17.80
2010,06,12,14,55,17.80
2010,06,12,14,56,17.90
2010,06,12,14,57,17.90
2010,06,12,14,58,18.00
2010,06,12,14,59,18.10
2010,06,12,15,00,18.20
2010,06,12,15,01,18.20
2010,06,12,15,02,18.30
2010,06,12,15,03,18.40
2010,06,12,15,04,18.50
2010,06,12,15,05,18.60
2010,06,12,15,06,18.80
2010,06,12,15,07,18.80
2010,06,12,15,08,18.80
2010,06,12,15,09,18.80
2010,06,12,15,10,18.80
2010,06,12,15,11,18.90
2010,06,12,15,12,18.90
2010,06,12,15,13,18.80
2010,06,12,15,14,18.80
2010,06,12,15,15,18.80
2010,06,12,15,16,18.90
2010,06,12,15,17,18.80
2010,06,12,15,18,18.80
2010,06,12,15,19,18.80
2010,06,12,15,20,18.80
2010,06,12,15,21,18.70
2010,06,12,15,22,18.60
2010,06,12,15,23,18.60
2010,06,12,15,24,18.40
2010,06,12,15,25,18.30
2010,06,12,15,26,18.30
2010,06,12,15,27,18.30
2010,06,12,15,28,18.30
2010,06,12,15,29,18.40
2010,06,12,15,30,18.50
2010,06,12,15,31,18.50
2010,06,12,15,32,18.40
2010,06,12,15,33,18.40
2010,06,12,15,34,18.40
2010,06,12,15,35,18.50
2010,06,12,15,36,18.50
2010,06,12,15,37,18.50
2010,06,12,15,38,18.40
2010,06,12,15,39,18.40
2010,06,12,15,40,18.40
2010,06,12,15,41,18.40
2010,06,12,15,42,18.50
2010,06,12,15,43,18.50
2010,06,12,15,44,18.60
2010,06,12,15,45,18.60
2010,06,12,15,46,18.60
2010,06,12,15,47,18.70
2010,06,12,15,48,18.70
2010,06,12,15,49,18.70
2010,06,12,15,50,18.70
2010,06,12,15,51,18.80
2010,06,12,15,52,18.80
2010,06,12,15,53,18.90
2010,06,12,15,54,18.90
2010,06,12,15,55,18.90
2010,06,12,15,56,18.90
2010,06,12,15,57,18.90
2010,06,12,15,58,18.90
2010,06,12,15,59,18.90
2010,06,12,16,00,18.90
2010,06,12,16,01,18.90
2010,06,12,16,02,18.90
2010,06,12,16,03,18.90
2010,06,12,16,04,18.90
2010,06,12,16,05,18.80
2010,06,12,16,06,18.80
2010,06,12,16,07,18.90
2010,06,12,16,08,18.90
2010,06,12,16,09,18.90
2010,06,12,16,10,18.90
2010,06,12,16,11,18.90
2010,06,12,16,12,18.90
2010,06,12,16,13,18.90
2010,06,12,16,14,18.80
2010,06,12,16,15,18.80
2010,06,12,16,16,18.70
2010,06,12,16,17,18.70
2010,06,12,16,18,18.70
2010,06,12,16,19,18.70
2010,06,12,16,20,18.70
2010,06,12,16,21,18.70
2010,06,12,16,22,18.70
2010,06,12,16,23,18.70
2010,06,12,16,24,18.80
2010,06,12,16,25,18.80
2010,06,12,16,26,18.80
2010,06,12,16,27,18.80
2010,06,12,16,28,18.80
2010,06,12,16,29,18.70
2010,06,12,16,30,18.70
2010,06,12,16,31,18.60
2010,06,12,16,32,18.60
2010,06,12,16,33,18.60
2010,06,12,16,34,18.60
2010,06,12,16,35,18.50
2010,06,12,16,36,18.50
2010,06,12,16,37,18.50
2010,06,12,16,38,18.50
2010,06,12,16,39,18.60
2010,06,12,16,40,18.60
2010,06,12,16,41,18.60
2010,06,12,16,42,18.60
2010,06,12,16,43,18.60
2010,06,12,16,44,18.60
2010,06,12,16,45,18.60
2010,06,12,16,46,18.60
2010,06,12,16,47,18.50
2010,06,12,16,48,18.50
2010,06,12,16,49,18.50
2010,06,12,16,50,18.60
2010,06,12,16,51,18.60
2010,06,12,16,52,18.50
2010,06,12,16,53,18.50
2010,06,12,16,54,18.50
2010,06,12,16,55,18.50
2010,06,12,16,56,18.50
2010,06,12,16,57,18.50
2010,06,12,16,58,18.50
2010,06,12,16,59,18.50
2010,06,12,17,00,18.60
2010,06,12,17,01,18.60
2010,06,12,17,02,18.50
2010,06,12,17,03,18.50
2010,06,12,17,04,18.50
2010,06,12,17,05,18.50
2010,06,12,17,06,18.50
2010,06,12,17,07,18.50
2010,06,12,17,08,18.60
2010,06,12,17,09,18.60
2010,06,12,17,10,18.50
2010,06,12,17,11,18.50
2010,06,12,17,12,18.50
2010,06,12,17,13,18.50
2010,06,12,17,14,18.50
2010,06,12,17,15,18.50
2010,06,12,17,16,18.50
2010,06,12,17,17,18.60
2010,06,12,17,18,18.60
2010,06,12,17,19,18.60
2010,06,12,17,20,18.60
2010,06,12,17,21,18.60
2010,06,12,17,22,18.60
2010,06,12,17,23,18.60
2010,06,12,17,24,18.60
2010,06,12,17,25,18.50
2010,06,12,17,26,18.50
2010,06,12,17,27,18.50
2010,06,12,17,28,18.50
2010,06,12,17,29,18.60
2010,06,12,17,30,18.60
2010,06,12,17,31,18.60
2010,06,12,17,32,18.60
2010,06,12,17,33,18.50
2010,06,12,17,34,18.50